Погода в Нальчике

Россия / Кабардино-Балкарская Республика     43°29′06″N   43°36′25″E
темп.,
°C
ветер,
м/с
пор.,
м/с
влажн.,
%
обл.,
%
осадки,
мм/ч
давл.,
гПа
погр.,
м
6 мая, чт
чт600:00+5юз21870 0.0 101812
03:00+5юз22790 0.0 101716
06:00+6ююз11720 0.0 101731
09:00+12всв33630 0.0 1015692
12:00+15всв435725 0.0 10131051
15:00+16всв435831 0.0 10121125
18:00+13всв347152 0.0 1013389
21:00+8сз1187100 0.0 101510
7 мая, пт
пт700:00+8з1186100 0.0 101511
03:00+8юз1181100 0.0 101514
06:00+10зюз117496 0.0 101624
09:00+15св226295 0.0 1016632
12:00+18св33507 0.0 10161241
15:00+18всв324815 0.0 10171377
18:00+15в236762 0.0 1017115
21:00+11юз227764 0.0 101919
8 мая, сб
сб800:00+10юз22795 0.0 101925
03:00+9юз22755 0.0 101822
06:00+11юз22700 0.0 101729
09:00+16в33545 0.0 1016767
12:00+19в445396 0.0 10151195
15:00+19в4454100 0.0 10131226
18:00+16вюв2275100 0.0 101355
21:00+12юз22850 0.0 101315
9 мая, вс
вс900:00+11зюз22650 0.0 101122
03:00+11юз2251100 0.0 101019
06:00+13з1157100 0.0 100918
09:00+18св2251100 0.0 1009479
12:00+19всв3257100 0.0 1008883
15:00+19св226269 0.2 10081146
18:00+10ссз2594100 7.8 1014323
21:00+6в2596100 10.9 1019552
10 мая, пн
пн1000:00+4зсз0395100 0.8 1022626
03:00+3ююз1294100 2.8 102579
06:00+4ююз239194 0.3 1025209
09:00+8юв226549 0.4 10241180
12:00+11всв135030 0.4 10211612
15:00+12вюв234891 1.1 10201791
18:00+6ссз238592 1.4 1021259
21:00+5ссв1494100 2.9 1022616